Flag for U.S.A. Weather past 2 weeks in Salinas, California, U.S.A.

Now
62 °F

Low clouds.


Feels Like: 62 °F
Forecast: 60 / 76 °F
Wind: No wind

Location: Salinas Municipal Airport

Current Time: Jul 29, 2014 at 6:25:14 AM

Latest Report: Jul 29, 2014 at 5:53 AM


Visibility: 10 mi

Pressure: 30.06 "Hg

Humidity: 86%

Dew point: 58 °F

Location of SalinasLocation

Historic Weather in Salinas — Graph

°F

Salinas temperature yesterday

Maximum temperature yesterday: 73 °F (at 1:53 PM)
Minimum temperature yesterday: 61 °F (at 2:53 AM)
Average temperature yesterday: 66 °F

Past Weeks' High & Low Weather Summary

 TemperatureHumidityPressure
High78 °F (Jul 25, 11:53 AM)97% (Jul 16, 6:53 AM)30.17 "Hg (Jul 16, 6:53 AM)
Low57 °F (Jul 14, 4:53 AM)48% (Jul 23, 11:53 AM)29.87 "Hg (Jul 25, 2:53 AM)
Average66 °F75%30.02 "Hg
* Reported Jul 14 4:53 AM — Jul 29 4:53 AM, Salinas, Weather by CustomWeather, © 2014

Note: Actual official high and low records may vary slightly from our data, if they occured in-between our weather recording intervals... More about our weather records

Advertising

Salinas weather history for previous 24 hours

 ConditionsComfort  
Time TempWeatherWind HumidityBarometerVisibility
4:53 AM
Jul 29
62 °FLow clouds.No wind86%30.08 "Hg10 mi
3:53 AM63 °FLow clouds.3 mph84%30.08 "Hg10 mi
2:53 AM63 °FLow clouds.3 mph84%30.08 "Hg10 mi
1:53 AM63 °FLow clouds.5 mph84%30.09 "Hg9 mi
12:53 AM63 °FPassing clouds.6 mph84%30.09 "Hg10 mi
11:53 PM
Jul 28
63 °FClear.7 mph84%30.09 "Hg10 mi
10:53 PM63 °FClear.8 mph84%30.09 "Hg10 mi
9:53 PM64 °FClear.8 mph81%30.09 "Hg10 mi
8:53 PM65 °FSunny.9 mph76%30.07 "Hg10 mi
7:53 PM68 °FSunny.8 mph70%30.06 "Hg10 mi
6:53 PM69 °FSunny.8 mph68%30.05 "Hg10 mi
5:53 PM69 °FSunny.10 mph68%30.06 "Hg10 mi
4:53 PM71 °FSunny.12 mph63%30.07 "Hg10 mi
3:53 PM72 °FSunny.13 mph61%30.08 "Hg10 mi
2:53 PM73 °FSunny.15 mph59%30.09 "Hg10 mi
1:53 PM73 °FSunny.14 mph59%30.09 "Hg10 mi
12:53 PM72 °FSunny.10 mph59%30.09 "Hg10 mi
11:53 AM72 °FSunny.10 mph61%30.09 "Hg10 mi
10:53 AM71 °FSunny.No wind63%30.09 "Hg9 mi
9:53 AM69 °FSunny.3 mph68%30.09 "Hg8 mi
8:53 AM65 °FPassing clouds.No wind76%30.08 "Hg8 mi
7:53 AM62 °FLow clouds.No wind83%30.07 "Hg7 mi
6:53 AM61 °FLow clouds.No wind87%30.05 "Hg7 mi
Weather by CustomWeather, © 2014

See weather overviewHow to use our weather pages